| time (UTC) | temp C | wind direction | speed KPH | gust KPH | rain 1hr cm | rain 24hr cm | rain mn cm | humidity % | barometer mb |
| 20260508110016 | 5 | 134 | 0.0 | 0.0 | 0.00 | 0.76 | 0.00 | 96 | 1016.7 |
| 20260508104521 | 5 | 134 | 0.0 | 0.0 | 0.00 | 0.76 | 0.00 | 96 | 1016.4 |
| 20260508103031 | 6 | 134 | 0.0 | 0.0 | 0.00 | 0.76 | 0.00 | 96 | 1016.3 |
| 20260508101537 | 6 | 134 | 0.0 | 0.0 | 0.00 | 0.76 | 0.00 | 96 | 1016.2 |
| 20260508100029 | 6 | 134 | 0.0 | 0.0 | 0.00 | 0.76 | 0.00 | 96 | 1016.0 |
| 20260508094518 | 6 | 134 | 0.0 | 0.0 | 0.00 | 0.76 | 0.00 | 96 | 1015.9 |
| 20260508093005 | 6 | 134 | 0.0 | 0.0 | 0.00 | 0.76 | 0.00 | 96 | 1015.7 |
| 20260508091504 | 6 | 134 | 0.0 | 0.0 | 0.00 | 0.76 | 0.00 | 96 | 1015.6 |
| 20260508090008 | 6 | 134 | 0.0 | 0.0 | 0.00 | 0.76 | 0.00 | 96 | 1015.6 |
| 20260508084514 | 7 | 134 | 0.0 | 0.0 | 0.00 | 0.76 | 0.00 | 96 | 1015.6 |
| 20260508083016 | 7 | 134 | 0.0 | 0.0 | 0.00 | 0.76 | 0.00 | 96 | 1015.4 |
| 20260508081503 | 7 | 134 | 0.0 | 0.0 | 0.00 | 0.76 | 0.00 | 96 | 1015.1 |
| 20260508080008 | 7 | 134 | 0.0 | 0.0 | 0.00 | 0.76 | 0.00 | 96 | 1015.0 |
| 20260508074510 | 7 | 134 | 0.0 | 0.0 | 0.00 | 0.76 | 0.00 | 96 | 1015.0 |
| 20260508073026 | 7 | 134 | 0.0 | 0.0 | 0.00 | 0.76 | 0.00 | 96 | 1014.9 |
| 20260508071527 | 7 | 134 | 0.0 | 0.0 | 0.00 | 0.76 | 0.00 | 96 | 1014.7 |
| 20260508070003 | 8 | 134 | 0.0 | 0.0 | 0.00 | 0.76 | 0.00 | 96 | 1014.7 |
| 20260508064511 | 8 | 134 | 0.0 | 0.0 | 0.00 | 0.76 | 0.00 | 96 | 1014.5 |
| 20260508063020 | 8 | 134 | 0.0 | 0.0 | 0.00 | 0.76 | 0.00 | 96 | 1014.5 |
| 20260508061520 | 8 | 134 | 0.0 | 0.0 | 0.00 | 0.76 | 0.00 | 96 | 1014.6 |
| 20260508060024 | 8 | 134 | 0.0 | 0.0 | 0.00 | 0.76 | 0.00 | 96 | 1014.5 |
| 20260508054525 | 8 | 134 | 0.0 | 0.0 | 0.00 | 0.79 | 0.00 | 96 | 1014.5 |
| 20260508053019 | 9 | 134 | 0.0 | 0.0 | 0.00 | 0.79 | 0.00 | 96 | 1014.5 |
| 20260508051516 | 9 | 134 | 0.0 | 0.0 | 0.00 | 0.79 | 0.00 | 96 | 1014.3 |
| 20260508050025 | 9 | 134 | 0.0 | 0.0 | 0.00 | 0.81 | 0.00 | 96 | 1014.4 |
| 20260508044524 | 9 | 134 | 0.0 | 0.0 | 0.00 | 0.84 | 0.00 | 95 | 1014.1 |
| 20260508043023 | 10 | 134 | 0.0 | 0.0 | 0.00 | 0.84 | 0.00 | 96 | 1014.1 |
| 20260508041511 | 10 | 134 | 0.0 | 0.0 | 0.00 | 0.84 | 0.00 | 96 | 1014.0 |
| 20260508040023 | 10 | 134 | 0.0 | 0.0 | 0.00 | 0.84 | 0.00 | 95 | 1013.8 |
| 20260508034528 | 10 | 134 | 0.0 | 0.0 | 0.00 | 0.84 | 0.84 | 96 | 1013.8 |
| 20260508033025 | 10 | 134 | 0.0 | 0.0 | 0.00 | 0.86 | 0.84 | 95 | 1013.7 |
| 20260508031531 | 11 | 134 | 0.0 | 0.0 | 0.00 | 0.89 | 0.84 | 95 | 1013.9 |
| 20260508030016 | 11 | 134 | 0.0 | 0.0 | 0.00 | 0.94 | 0.84 | 95 | 1013.5 |
| 20260508024518 | 11 | 134 | 0.0 | 1.6 | 0.00 | 0.94 | 0.84 | 96 | 1013.6 |
| 20260508023028 | 11 | 134 | 0.0 | 4.8 | 0.00 | 0.99 | 0.84 | 96 | 1013.4 |
| 20260508021525 | 11 | 48 | 1.6 | 4.8 | 0.00 | 0.99 | 0.84 | 95 | 1013.2 |
| 20260508020027 | 12 | 40 | 0.0 | 0.0 | 0.00 | 1.04 | 0.84 | 94 | 1013.0 |
| 20260508014532 | 12 | 40 | 0.0 | 3.2 | 0.00 | 1.04 | 0.84 | 95 | 1012.8 |
| 20260508013020 | 12 | 40 | 0.0 | 1.6 | 0.00 | 1.04 | 0.84 | 94 | 1012.4 |
| 20260508011529 | 12 | 40 | 0.0 | 1.6 | 0.00 | 1.07 | 0.84 | 94 | 1012.0 |
| 20260508010030 | 13 | 40 | 0.0 | 1.6 | 0.00 | 1.09 | 0.84 | 93 | 1011.7 |
| 20260508004529 | 13 | 40 | 0.0 | 1.6 | 0.00 | 1.12 | 0.84 | 93 | 1011.5 |
| 20260508003010 | 13 | 40 | 0.0 | 3.2 | 0.00 | 1.12 | 0.84 | 93 | 1011.5 |
| 20260508001503 | 13 | 40 | 0.0 | 3.2 | 0.00 | 1.12 | 0.84 | 92 | 1011.4 |
| 20260508000006 | 14 | 40 | 0.0 | 4.8 | 0.00 | 1.12 | 0.84 | 92 | 1011.4 |
| 20260507234509 | 14 | 45 | 0.0 | 1.6 | 0.00 | 1.12 | 0.84 | 93 | 1011.4 |
| 20260507233017 | 14 | 45 | 0.0 | 4.8 | 0.00 | 1.12 | 0.84 | 92 | 1011.3 |
| 20260507231504 | 14 | 41 | 0.0 | 4.8 | 0.00 | 1.12 | 0.84 | 91 | 1011.0 |
| 20260507230004 | 14 | 345 | 0.0 | 4.8 | 0.00 | 1.12 | 0.84 | 91 | 1010.7 |
| 20260507224512 | 14 | 70 | 1.6 | 6.4 | 0.00 | 1.12 | 0.84 | 91 | 1010.5 |
| 20260507223012 | 14 | 96 | 3.2 | 12.9 | 0.00 | 1.12 | 0.84 | 91 | 1010.2 |
| 20260507221516 | 14 | 348 | 3.2 | 14.5 | 0.00 | 1.12 | 0.84 | 91 | 1009.8 |
| 20260507220004 | 14 | 49 | 3.2 | 14.5 | 0.00 | 1.12 | 0.84 | 92 | 1009.7 |
| 20260507214504 | 14 | 87 | 3.2 | 9.7 | 0.00 | 1.12 | 0.84 | 93 | 1010.0 |
| 20260507213011 | 14 | 346 | 6.4 | 12.9 | 0.00 | 1.12 | 0.84 | 93 | 1009.5 |
| 20260507211514 | 14 | 60 | 6.4 | 16.1 | 0.00 | 1.12 | 0.84 | 93 | 1009.7 |
| 20260507210020 | 14 | 74 | 1.6 | 11.3 | 0.03 | 1.12 | 0.84 | 93 | 1009.1 |
| 20260507204503 | 15 | 67 | 4.8 | 16.1 | 0.03 | 1.12 | 0.84 | 93 | 1009.0 |
| 20260507203013 | 15 | 49 | 4.8 | 16.1 | 0.13 | 1.12 | 0.84 | 94 | 1009.5 |
| 20260507201512 | 15 | 109 | 3.2 | 16.1 | 0.18 | 1.12 | 0.84 | 94 | 1009.4 |
| 20260507200018 | 15 | 27 | 3.2 | 22.5 | 0.15 | 1.09 | 0.81 | 94 | 1008.9 |
| 20260507194524 | 15 | 336 | 9.7 | 27.4 | 0.15 | 1.09 | 0.81 | 92 | 1009.1 |
| 20260507193005 | 16 | 63 | 9.7 | 27.4 | 0.05 | 0.99 | 0.71 | 88 | 1009.0 |
| 20260507191510 | 17 | 346 | 6.4 | 14.5 | 0.00 | 0.94 | 0.66 | 85 | 1008.4 |
| 20260507190014 | 18 | 338 | 4.8 | 17.7 | 0.00 | 0.94 | 0.66 | 85 | 1007.9 |
| 20260507184521 | 19 | 24 | 4.8 | 17.7 | 0.00 | 0.94 | 0.66 | 85 | 1008.3 |
| 20260507183024 | 20 | 61 | 3.2 | 14.5 | 0.00 | 0.94 | 0.66 | 86 | 1008.6 |
| 20260507181505 | 21 | 90 | 6.4 | 20.9 | 0.00 | 0.94 | 0.66 | 81 | 1008.6 |
| 20260507180012 | 21 | 67 | 1.6 | 6.4 | 0.00 | 0.94 | 0.66 | 83 | 1008.6 |
| 20260507174516 | 21 | 181 | 4.8 | 9.7 | 0.00 | 0.94 | 0.66 | 84 | 1008.7 |
| 20260507173022 | 20 | 178 | 1.6 | 11.3 | 0.00 | 0.94 | 0.66 | 85 | 1008.7 |
| 20260507171525 | 20 | 88 | 0.0 | 8.0 | 0.00 | 0.94 | 0.66 | 86 | 1008.9 |
| 20260507170010 | 20 | 265 | 0.0 | 0.0 | 0.00 | 0.94 | 0.66 | 91 | 1009.1 |
| 20260507164511 | 19 | 266 | 0.0 | 6.4 | 0.00 | 0.94 | 0.66 | 89 | 1009.3 |
| 20260507163020 | 19 | 298 | 1.6 | 4.8 | 0.00 | 0.94 | 0.66 | 92 | 1009.4 |
| 20260507161521 | 18 | 355 | 0.0 | 6.4 | 0.00 | 0.94 | 0.66 | 94 | 1009.0 |
| 20260507160024 | 18 | 336 | 0.0 | 3.2 | 0.00 | 0.94 | 0.66 | 97 | 1009.0 |
| 20260507154512 | 18 | 197 | 0.0 | 4.8 | 0.00 | 0.94 | 0.66 | 97 | 1009.3 |
| 20260507153013 | 17 | 227 | 0.0 | 3.2 | 0.00 | 0.94 | 0.66 | 97 | 1009.8 |
| 20260507151503 | 17 | 227 | 0.0 | 8.0 | 0.00 | 0.94 | 0.66 | 97 | 1009.8 |
| 20260507150007 | 17 | 200 | 3.2 | 6.4 | 0.03 | 0.94 | 0.66 | 97 | 1010.1 |
| 20260507144507 | 17 | 210 | 1.6 | 6.4 | 0.03 | 0.94 | 0.66 | 97 | 1010.5 |
| 20260507143009 | 17 | 194 | 1.6 | 6.4 | 0.03 | 0.94 | 0.66 | 97 | 1009.9 |
| 20260507141519 | 17 | 232 | 1.6 | 4.8 | 0.05 | 0.94 | 0.66 | 98 | 1009.7 |
| 20260507140004 | 17 | 238 | 0.0 | 3.2 | 0.10 | 0.91 | 0.64 | 97 | 1009.6 |
| 20260507134506 | 17 | 238 | 1.6 | 6.4 | 0.20 | 0.91 | 0.64 | 97 | 1009.9 |
| 20260507133010 | 17 | 141 | 0.0 | 3.2 | 0.36 | 0.91 | 0.64 | 98 | 1009.7 |
| 20260507131516 | 16 | 141 | 0.0 | 3.2 | 0.46 | 0.89 | 0.61 | 97 | 1009.3 |
| 20260507130019 | 16 | 248 | 1.6 | 4.8 | 0.41 | 0.81 | 0.53 | 97 | 1009.2 |
| 20260507124511 | 16 | 248 | 0.0 | 4.8 | 0.33 | 0.71 | 0.43 | 97 | 1010.6 |
| 20260507123006 | 16 | 258 | 0.0 | 3.2 | 0.20 | 0.56 | 0.28 | 97 | 1011.1 |
| 20260507121512 | 16 | 248 | 0.0 | 0.0 | 0.08 | 0.43 | 0.15 | 97 | 1011.4 |
| 20260507120018 | 16 | 238 | 0.0 | 0.0 | 0.05 | 0.41 | 0.13 | 97 | 1010.7 |
| 20260507114522 | 16 | 247 | 0.0 | 0.0 | 0.03 | 0.38 | 0.10 | 97 | 1010.5 |
| 20260507113005 | 16 | 325 | 0.0 | 0.0 | 0.00 | 0.36 | 0.08 | 97 | 1010.8 |
| 20260507111510 | 16 | 325 | 0.0 | 0.0 | 0.00 | 0.36 | 0.08 | 97 | 1010.4 |